{"data":{"norad_id":62641,"epoch":"2026-09-18T23:42:29.964384Z","epoch_age_seconds":145026,"freshness":"FRESH","line1":"1 62641U 25009AJ  26261.98784681  .00008017  00000+0  27071-3 0  9998","line2":"2 62641  97.3876 342.9131 0001721  23.3305 336.8014 15.30941848 93247","mean_motion":15.30941848,"eccentricity":0.0001721,"inclination_deg":97.3876,"raan_deg":342.9131,"arg_perigee_deg":23.3305,"mean_anomaly_deg":336.8014,"bstar":0.00027071,"rev_number":9324,"period_min":94.059745109273,"perigee_km":471.82185866382,"apogee_km":474.18002034259,"semimajor_km":6851.1379395032,"source":"CELESTRAK","updated_at":"2026-09-20T09:00:34.719433Z"}}